[[{"header":{"parameterUnit":"m.s-1","parameterCategory":1,"la1":30.2992,"la2":30.254,"lo1":-89.0895,"lo2":-89.0443,"dy":0.0025,"dx":0.0025,"nx":19,"ny":19,"refTime":"2026-04-05T03:00:00:Z","depth":0,"parameterNumber":2,"parameterNumberName":"U-component_of_WINDS"},"data":[0,0,0,-3.6663,-3.6667,-3.688,-3.688,-3.7163,-3.7166,0,0,0,0,0,0,0,0,0,0,0,-3.661,-3.6612,-3.6662,-3.6668,-3.6879,-3.688,-3.7163,-3.7166,0,0,0,0,0,0,0,0,0,0,0,-3.6608,-3.6611,-3.6614,-3.6669,-3.6879,-3.688,-3.7162,-3.6997,0,0,0,0,0,0,0,0,0,0,-3.6789,-3.675,-3.6611,-3.6614,-3.667,-3.6879,-3.688,-3.6989,-3.7008,-3.7073,0,-3.7135,0,-3.7155,-3.7186,-3.7187,0,0,0,-3.6661,-3.6735,-3.6784,-3.6614,-3.6672,-3.6879,-3.6782,-3.6999,-3.702,-3.7097,-3.7139,-3.7149,-3.716,-3.7187,-3.7189,-3.7594,-3.7596,0,0,-3.6649,-3.6653,-3.6769,-3.6798,-3.6768,-3.6775,-3.6789,-3.7012,-3.7057,-3.714,-3.7156,-3.7164,-3.7189,-3.7192,-3.7592,-3.7595,0,0,0,-3.662,-3.6645,-3.6687,-3.6786,-3.6824,-3.6782,-3.6797,-3.7047,-3.7061,-3.7159,-3.7168,-3.7191,-3.7195,-3.7589,-3.7593,-3.771,0,0,0,-3.6613,-3.6628,-3.6683,-3.6687,-3.682,-3.6939,-3.6827,-3.7045,-3.707,-3.7166,-3.7191,-3.7198,-3.7587,-3.7591,-3.7701,-3.7765,0,0,0,-3.6592,-3.6625,-3.6659,-3.6687,-3.6778,-3.6935,-3.6961,-3.705,-3.7077,-3.7187,-3.7198,-3.7585,-3.759,-3.7694,-3.7752,-3.7874,0,0,0,-3.6571,-3.6759,-3.6661,-3.6874,-3.6777,-3.7005,-3.696,-3.7129,-3.7238,-3.7193,-3.7587,-3.7593,-3.7691,-3.7745,-3.7866,-3.7979,-3.8026,0,0,-3.6811,-3.6788,-3.6913,-3.6832,-3.7079,-3.6972,-3.7236,-3.7331,-3.7337,-3.7507,-3.7517,-3.7704,-3.7751,-3.7872,-3.8283,-3.832,0,0,0,-3.699,-3.708,-3.7145,-3.7249,-3.7326,-3.7398,-3.7451,-3.7486,-3.7631,-3.7426,-3.7779,-3.7807,-3.7878,-3.7932,-3.7964,-3.8024,-3.7617,-3.7616,-3.7616,-3.7337,-3.7334,-3.754,-3.7564,-3.7664,-3.7717,-3.7799,-3.7854,-3.7821,-3.7904,-3.7957,-3.8206,-3.8269,-3.8293,-3.8356,-3.8013,-3.8014,-3.8014,-3.8015,-3.7689,-3.7817,-3.7768,-3.7951,-3.7946,-3.8099,-3.8156,-3.8127,-3.8268,-3.8167,-3.8229,-3.8121,-3.8334,-3.8389,-3.8023,-3.8022,-3.8021,-3.802,-3.8019,-3.7918,-3.7979,-3.8017,-3.8167,-3.8281,-3.8296,-3.8433,-3.8423,-3.8414,-3.8475,-3.8529,-3.8527,-3.8526,-3.8501,-3.8502,-3.8503,-3.8503,-3.8504,-3.8504,-3.8142,-3.8181,-3.83,-3.8396,-3.8461,-3.8544,-3.8596,-3.8659,-3.8726,-3.8707,-3.8708,-3.8668,-3.8355,-3.8278,-3.8518,-3.8516,-3.8514,-3.8513,-3.8512,-3.8505,-3.8421,-3.8604,-3.8669,-3.878,-3.8894,-3.8877,-3.9006,-3.9055,-3.9123,-3.9068,-3.8838,-3.8814,-3.8789,-3.8726,-3.9067,-3.9067,-3.9067,-3.9067,-3.8701,-3.8687,-3.8872,-3.8976,-3.9076,-3.9079,-3.9284,-3.9325,-3.9354,-3.9384,-3.9332,-3.9246,-3.922,-3.9212,-3.9177,-3.9118,-3.9552,-3.9553,-3.9553,-3.8925,-3.892,-3.9099,-3.9127,-3.9212,-3.9284,-3.9477,-3.9597,-3.9611,-3.9573,-3.9408,-3.9387,-3.9248,-3.9202,-3.9164,-3.9111,-3.9002,0,0]},{"header":{"parameterUnit":"m.s-1","parameterCategory":1,"la1":30.2992,"la2":30.254,"lo1":-89.0895,"lo2":-89.0443,"dy":0.0025,"dx":0.0025,"nx":19,"ny":19,"refTime":"2026-04-05T03:00:00:Z","depth":0,"parameterNumber":3,"parameterNumberName":"V-component_of_WINDS"},"data":[0,0,0,-5.3911,-5.3914,-5.4058,-5.4058,-5.4246,-5.4248,0,0,0,0,0,0,0,0,0,0,0,-5.3874,-5.3876,-5.391,-5.3914,-5.4058,-5.4058,-5.4246,-5.4248,0,0,0,0,0,0,0,0,0,0,0,-5.3874,-5.3875,-5.3877,-5.3915,-5.4058,-5.4058,-5.4246,-5.4135,0,0,0,0,0,0,0,0,0,0,-5.3994,-5.3968,-5.3875,-5.3877,-5.3916,-5.4057,-5.4058,-5.4129,-5.4142,-5.4184,0,-5.4227,0,-5.4241,-5.4261,-5.4262,0,0,0,-5.3909,-5.3958,-5.3991,-5.3878,-5.3917,-5.4057,-5.3991,-5.4136,-5.415,-5.4201,-5.423,-5.4236,-5.4244,-5.4263,-5.4264,-5.4533,-5.4534,0,0,-5.3901,-5.3903,-5.3981,-5.4,-5.3982,-5.3987,-5.3996,-5.4145,-5.4175,-5.423,-5.4241,-5.4247,-5.4264,-5.4265,-5.4531,-5.4533,0,0,0,-5.3882,-5.3898,-5.3927,-5.3993,-5.4019,-5.3991,-5.4002,-5.4168,-5.4178,-5.4243,-5.4249,-5.4265,-5.4268,-5.453,-5.4532,-5.4608,0,0,0,-5.3877,-5.3886,-5.3924,-5.3927,-5.4016,-5.4096,-5.4022,-5.4167,-5.4184,-5.4248,-5.4265,-5.4269,-5.4528,-5.4531,-5.4603,-5.4643,0,0,0,-5.3863,-5.3885,-5.3908,-5.3926,-5.3989,-5.4094,-5.4112,-5.4171,-5.4189,-5.4262,-5.427,-5.4527,-5.453,-5.4598,-5.4635,-5.4713,0,0,0,-5.3848,-5.3974,-5.3909,-5.4052,-5.3988,-5.4141,-5.411,-5.4224,-5.4297,-5.4266,-5.4528,-5.4532,-5.4596,-5.463,-5.4708,-5.4779,-5.4809,0,0,-5.4008,-5.3994,-5.4077,-5.4024,-5.4189,-5.4119,-5.4294,-5.4358,-5.4362,-5.4475,-5.4481,-5.4605,-5.4635,-5.4712,-5.498,-5.5004,0,0,0,-5.4129,-5.4189,-5.4232,-5.4302,-5.4355,-5.4402,-5.4438,-5.4461,-5.4557,-5.4422,-5.4655,-5.4673,-5.4718,-5.4751,-5.4772,-5.4809,-5.4548,-5.4548,-5.4547,-5.4358,-5.4357,-5.4495,-5.4511,-5.4578,-5.4614,-5.4668,-5.4704,-5.4683,-5.4738,-5.4771,-5.4934,-5.4974,-5.4989,-5.5028,-5.481,-5.481,-5.481,-5.481,-5.4591,-5.4674,-5.4643,-5.4766,-5.4763,-5.4864,-5.4902,-5.4884,-5.4975,-5.491,-5.495,-5.4876,-5.5016,-5.5049,-5.4816,-5.4815,-5.4815,-5.4814,-5.4814,-5.4739,-5.4779,-5.4806,-5.4905,-5.4981,-5.4991,-5.5081,-5.5075,-5.507,-5.511,-5.5142,-5.5141,-5.5137,-5.5126,-5.5126,-5.5127,-5.5127,-5.5128,-5.5128,-5.4882,-5.491,-5.4988,-5.5053,-5.5095,-5.515,-5.5186,-5.5226,-5.5269,-5.5257,-5.5258,-5.5229,-5.5031,-5.4979,-5.5137,-5.5135,-5.5134,-5.5133,-5.5133,-5.5116,-5.5062,-5.5182,-5.5225,-5.5298,-5.5372,-5.5364,-5.5447,-5.5479,-5.5523,-5.5486,-5.534,-5.5324,-5.5308,-5.5265,-5.5487,-5.5487,-5.5487,-5.5488,-5.524,-5.5232,-5.5352,-5.542,-5.5486,-5.5489,-5.562,-5.5648,-5.5667,-5.5686,-5.5653,-5.5597,-5.5581,-5.5574,-5.5552,-5.5512,-5.5792,-5.5792,-5.5793,-5.5382,-5.538,-5.5495,-5.5515,-5.5571,-5.5619,-5.5741,-5.5818,-5.5828,-5.5805,-5.57,-5.5688,-5.5597,-5.5568,-5.5541,-5.5507,-5.5434,0,0]}]]